GW5499 Weather Reports


time (UTC)temp
C
wind
direction
speed
KPH
gust
KPH
rain 1hr
cm
rain 24hr
cm
rain mn
cm
humidity
%
barometer
mb
20260509161526 25 9 4.8 9.7 0.00 0.08 0.00 81 1010.7
20260509160028 24 109 1.6 6.4 0.00 0.08 0.00 82 1010.7
20260509154528 25 79 1.6 6.4 0.00 0.08 0.00 84 1010.4
20260509153021 24 103 4.8 9.7 0.00 0.08 0.00 88 1010.4
20260509151532 23 70 3.2 9.7 0.00 0.08 0.00 86 1010.4
20260509150025 23 23 1.6 6.4 0.00 0.08 0.00 88 1010.2
20260509144528 23 205 1.6 9.7 0.00 0.08 0.00 87 1010.2
20260509143017 23 119 1.6 8.0 0.00 0.08 0.00 88 1010.2
20260509141529 22 82 0.0 6.4 0.00 0.08 0.00 90 1010.1
20260509140024 21 84 1.6 6.4 0.00 0.08 0.00 93 1010.4
20260509134528 21 119 0.0 3.2 0.00 0.08 0.00 94 1010.6
20260509133029 20 155 1.6 4.8 0.00 0.08 0.00 94 1010.7
20260509131529 20 136 0.0 4.8 0.00 0.08 0.00 93 1010.7
20260509130029 20 69 3.2 6.4 0.00 0.08 0.00 93 1010.8
20260509124527 20 80 1.6 4.8 0.00 0.08 0.00 93 1010.9
20260509123028 21 44 3.2 3.2 0.00 0.08 0.00 93 1010.7
20260509121523 21 126 0.0 0.0 0.00 0.08 0.00 93 1010.6
20260509120012 21 126 0.0 0.0 0.00 0.08 0.00 92 1010.6
20260509114506 21 126 0.0 1.6 0.00 0.08 0.00 92 1010.2
20260509113008 20 230 0.0 3.2 0.00 0.08 0.00 92 1009.9
20260509111509 20 252 0.0 3.2 0.00 0.08 0.00 92 1009.8
20260509110009 20 323 1.6 3.2 0.00 0.08 0.00 91 1009.4
20260509104503 20 209 0.0 4.8 0.00 0.08 0.00 92 1008.8
20260509103009 20 118 1.6 4.8 0.00 0.08 0.00 92 1008.2
20260509101508 20 176 3.2 8.0 0.00 0.08 0.00 91 1008.1
20260509100014 20 186 1.6 4.8 0.00 0.08 0.00 90 1008.4
20260509094511 20 151 0.0 4.8 0.00 0.08 0.00 90 1008.8
20260509093008 20 144 0.0 3.2 0.00 0.08 0.00 89 1008.9
20260509091520 20 137 0.0 3.2 0.00 0.08 0.00 89 1009.0
20260509090010 20 168 0.0 6.4 0.00 0.08 0.00 89 1009.1
20260509084519 20 142 0.0 1.6 0.00 0.08 0.00 90 1009.5
20260509083012 20 103 0.0 0.0 0.00 0.08 0.00 89 1009.8
20260509081509 20 162 0.0 3.2 0.00 0.08 0.00 89 1010.1
20260509080021 21 77 0.0 0.0 0.00 0.08 0.00 88 1010.5
20260509074514 21 77 0.0 3.2 0.00 0.08 0.00 87 1010.4
20260509073032 21 162 0.0 4.8 0.00 0.08 0.00 87 1010.1
20260509071507 21 146 0.0 3.2 0.00 0.08 0.00 87 1010.2
20260509070014 21 125 0.0 3.2 0.00 0.08 0.00 88 1010.2
20260509064514 21 161 0.0 0.0 0.00 0.08 0.00 89 1010.8
20260509063013 21 86 0.0 0.0 0.00 0.08 0.00 89 1010.9
20260509061513 20 186 0.0 1.6 0.00 0.08 0.00 89 1010.9
20260509060015 20 110 0.0 3.2 0.00 0.08 0.00 89 1010.9
20260509054528 20 186 0.0 3.2 0.00 0.08 0.00 91 1010.8
20260509053016 20 205 0.0 8.0 0.00 0.08 0.00 91 1010.6
20260509051517 20 224 1.6 9.7 0.00 0.08 0.00 91 1010.1
20260509050025 20 142 0.0 8.0 0.00 0.08 0.00 91 1010.1
20260509044515 20 132 3.2 6.4 0.00 0.08 0.08 90 1011.0
20260509043035 20 360 6.4 12.9 0.00 0.08 0.08 87 1011.4
20260509041520 21 333 6.4 12.9 0.00 0.08 0.08 85 1011.0
20260509040019 20 36 3.2 12.9 0.00 0.08 0.08 88 1010.7
20260509034513 21 5 0.0 0.0 0.00 0.08 0.08 87 1010.1
20260509033015 21 88 0.0 0.0 0.00 0.08 0.08 86 1010.0
20260509031521 21 118 0.0 1.6 0.00 0.08 0.08 87 1009.9
20260509030019 20 149 0.0 0.0 0.00 0.08 0.08 89 1009.8
20260509024520 20 196 0.0 1.6 0.00 0.08 0.08 91 1009.8
20260509023022 20 196 0.0 0.0 0.00 0.08 0.08 90 1009.5
20260509021522 19 188 0.0 0.0 0.00 0.08 0.08 90 1009.3
20260509020021 19 284 0.0 0.0 0.00 0.08 0.08 89 1009.5
20260509014520 19 284 0.0 0.0 0.00 0.08 0.08 88 1009.2
20260509013040 20 285 0.0 3.2 0.00 0.08 0.08 87 1008.8
20260509011520 21 267 0.0 0.0 0.00 0.08 0.08 85 1008.6
20260509010026 21 272 0.0 0.0 0.00 0.08 0.08 84 1008.5
20260509004540 22 272 0.0 3.2 0.00 0.08 0.08 81 1008.4
20260509003027 22 181 0.0 3.2 0.00 0.08 0.08 77 1008.4
20260509001522 23 166 0.0 3.2 0.00 0.08 0.08 75 1008.5
20260509000023 23 160 0.0 4.8 0.00 0.08 0.08 73 1008.7
20260508234504 23 174 1.6 6.4 0.00 0.08 0.08 73 1009.0
20260508233007 23 235 1.6 12.9 0.00 0.08 0.08 73 1009.0
20260508231512 24 198 4.8 11.3 0.00 0.08 0.08 71 1009.0
20260508230035 23 167 3.2 8.0 0.03 0.08 0.08 70 1009.0
20260508224523 23 209 3.2 4.8 0.08 0.08 0.08 74 1008.8
20260508223009 23 62 3.2 19.3 0.08 0.08 0.08 74 1008.2
20260508221523 20 236 3.2 8.0 0.08 0.08 0.08 88 1006.6
20260508220019 21 143 0.0 4.8 0.05 0.05 0.05 85 1009.6
20260508214524 22 173 0.0 4.8 0.00 0.00 0.00 77 1009.9
20260508213006 24 177 1.6 6.4 0.00 0.00 0.00 67 1009.8
20260508211510 25 135 1.6 4.8 0.00 0.00 0.00 63 1009.9
20260508210016 25 144 1.6 6.4 0.00 0.00 0.00 63 1010.0
20260508204522 25 27 3.2 11.3 0.00 0.00 0.00 62 1010.0
20260508203026 25 35 6.4 12.9 0.00 0.00 0.00 62 1010.0
20260508201506 25 68 3.2 9.7 0.00 0.00 0.00 62 1010.1
20260508200037 24 12 0.0 11.3 0.00 0.00 0.00 61 1010.2
20260508194528 24 111 3.2 8.0 0.00 0.00 0.00 66 1010.7
20260508193023 24 63 4.8 11.3 0.00 0.00 0.00 65 1010.7
20260508191507 23 90 3.2 8.0 0.00 0.00 0.00 67 1011.2
20260508190011 23 67 3.2 11.3 0.00 0.00 0.00 67 1011.2
20260508184551 23 86 1.6 6.4 0.00 0.00 0.00 66 1011.2
20260508183020 23 154 0.0 8.0 0.00 0.00 0.00 69 1011.6
20260508181542 23 32 1.6 11.3 0.00 0.00 0.00 69 1011.9
20260508180010 23 28 1.6 8.0 0.00 0.00 0.00 66 1012.4
20260508174529 22 154 1.6 6.4 0.00 0.00 0.00 67 1012.7
20260508173026 22 248 3.2 9.7 0.00 0.00 0.00 67 1012.8
20260508171524 22 161 1.6 11.3 0.00 0.00 0.00 69 1012.9
20260508170033 22 219 3.2 14.5 0.00 0.00 0.00 68 1013.3
20260508164511 23 136 1.6 12.9 0.00 0.00 0.00 67 1013.6
20260508163028 22 186 3.2 17.7 0.00 0.00 0.00 71 1013.5